�������l�o���
Date,Time,MP-1(��Sv/h),MP-2(��Sv/h),MP-3(��Sv/h),MP-4(��Sv/h),MP-5(��Sv/h),MP-6(��Sv/h),MP-7(��Sv/h),MP-8(��Sv/h),����,����(m/s),���J
2019/04/22,00:00,0.779,1.140,0.787,1.454,1.064,0.443,0.782,0.738,��,1.5,��
2019/04/22,00:10,0.778,1.140,0.785,1.455,1.061,0.443,0.782,0.739,���k��,1.2,��
2019/04/22,00:20,0.778,1.142,0.787,1.456,1.062,0.443,0.782,0.736,�k��,1.1,��
2019/04/22,00:30,0.779,1.141,0.786,1.454,1.065,0.442,0.782,0.739,�k�k��,1.4,��
2019/04/22,00:40,0.778,1.139,0.787,1.453,1.063,0.441,0.782,0.739,���k��,2.0,��
2019/04/22,00:50,0.779,1.141,0.785,1.455,1.064,0.443,0.782,0.739,��,1.7,��
2019/04/22,01:00,0.777,1.141,0.786,1.454,1.064,0.443,0.779,0.738,��,0.9,��
2019/04/22,01:10,0.780,1.140,0.786,1.456,1.063,0.443,0.780,0.738,�쐼,0.9,��
2019/04/22,01:20,0.780,1.138,0.785,1.454,1.064,0.444,0.780,0.740,�쐼,1.4,��
2019/04/22,01:30,0.780,1.141,0.785,1.456,1.063,0.444,0.783,0.740,���쐼,2.3,��
2019/04/22,01:40,0.778,1.140,0.786,1.454,1.064,0.443,0.782,0.738,�쐼,1.7,��
2019/04/22,01:50,0.780,1.140,0.787,1.455,1.066,0.444,0.780,0.738,���쐼,1.9,��
2019/04/22,02:00,0.779,1.141,0.785,1.455,1.064,0.443,0.782,0.739,���쐼,3.2,��
2019/04/22,02:10,0.780,1.140,0.784,1.455,1.066,0.442,0.782,0.737,�쐼,3.9,��
2019/04/22,02:20,0.780,1.138,0.787,1.456,1.065,0.443,0.781,0.739,�쐼,4.8,��
2019/04/22,02:30,0.779,1.142,0.784,1.456,1.065,0.443,0.780,0.737,�쐼,3.9,��
2019/04/22,02:40,0.779,1.140,0.785,1.456,1.064,0.443,0.781,0.738,�쐼,4.8,��
2019/04/22,02:50,0.778,1.140,0.787,1.455,1.064,0.445,0.781,0.737,�쐼,4.2,��
2019/04/22,03:00,0.780,1.140,0.786,1.456,1.062,0.443,0.782,0.739,���쐼,2.3,��
2019/04/22,03:10,0.780,1.141,0.786,1.453,1.066,0.443,0.780,0.739,���k��,1.2,��
2019/04/22,03:20,0.778,1.141,0.788,1.454,1.065,0.444,0.781,0.738,�k��,1.7,��
2019/04/22,03:30,0.778,1.140,0.787,1.455,1.065,0.442,0.780,0.737,���k��,1.7,��
2019/04/22,03:40,0.779,1.141,0.788,1.456,1.063,0.443,0.780,0.739,��,2.6,��
2019/04/22,03:50,0.779,1.139,0.787,1.455,1.063,0.443,0.779,0.739,��,2.0,��
2019/04/22,04:00,0.779,1.137,0.787,1.456,1.062,0.442,0.781,0.739,��,2.2,��
2019/04/22,04:10,0.778,1.139,0.785,1.454,1.063,0.442,0.780,0.738,��,2.6,��
2019/04/22,04:20,0.778,1.139,0.785,1.455,1.064,0.444,0.781,0.738,��,2.6,��
2019/04/22,04:30,0.777,1.140,0.785,1.452,1.063,0.443,0.780,0.737,��,2.3,��
2019/04/22,04:40,0.779,1.139,0.785,1.455,1.063,0.443,0.779,0.741,���k��,2.2,��
2019/04/22,04:50,0.778,1.141,0.786,1.455,1.063,0.443,0.780,0.739,���k��,3.4,��
2019/04/22,05:00,0.779,1.139,0.786,1.457,1.064,0.443,0.780,0.738,�k��,3.2,��
2019/04/22,05:10,0.778,1.139,0.785,1.457,1.063,0.444,0.780,0.738,�k��,3.9,��
2019/04/22,05:20,0.778,1.138,0.787,1.455,1.063,0.442,0.779,0.739,�k��,5.0,��
2019/04/22,05:30,0.777,1.140,0.787,1.453,1.063,0.443,0.780,0.738,�k�k��,5.8,��
2019/04/22,05:40,0.777,1.139,0.784,1.454,1.062,0.441,0.781,0.739,�k�k��,5.6,��
2019/04/22,05:50,0.779,1.137,0.786,1.454,1.063,0.441,0.781,0.739,�k�k��,7.4,��
2019/04/22,06:00,0.779,1.138,0.786,1.453,1.065,0.441,0.781,0.740,�k�k��,7.3,��
2019/04/22,06:10,0.778,1.139,0.786,1.454,1.062,0.442,0.778,0.738,�k,6.9,��
2019/04/22,06:20,0.775,1.139,0.783,1.452,1.064,0.441,0.779,0.739,�k,5.0,��
2019/04/22,06:30,0.777,1.139,0.786,1.455,1.061,0.442,0.780,0.738,�k,5.0,��
2019/04/22,06:40,0.778,1.139,0.785,1.453,1.063,0.443,0.781,0.738,�k,4.8,��
2019/04/22,06:50,0.777,1.137,0.786,1.453,1.061,0.440,0.781,0.737,�k,4.3,��
2019/04/22,07:00,0.778,1.140,0.786,1.458,1.064,0.441,0.779,0.737,�k,4.3,��
2019/04/22,07:10,0.778,1.139,0.788,1.457,1.063,0.441,0.779,0.737,�k,3.2,��
2019/04/22,07:20,0.777,1.135,0.785,1.456,1.063,0.441,0.782,0.738,�k,4.1,��
2019/04/22,07:30,0.778,1.137,0.787,1.456,1.062,0.440,0.781,0.740,�k,5.0,��
2019/04/22,07:40,0.778,1.135,0.787,1.454,1.062,0.441,0.782,0.735,�k,3.7,��
2019/04/22,07:50,0.779,1.137,0.785,1.453,1.062,0.439,0.781,0.738,�k,3.4,��
2019/04/22,08:00,0.777,1.134,0.784,1.455,1.062,0.440,0.782,0.738,�k,4.1,�L
2019/04/22,08:10,0.779,1.135,0.786,1.456,1.064,0.440,0.780,0.738,�k�k��,4.9,��
2019/04/22,08:20,0.779,1.137,0.785,1.456,1.062,0.440,0.779,0.737,�k�k��,5.3,��
2019/04/22,08:30,0.778,1.130,0.782,1.456,1.062,0.439,0.779,0.738,�k�k��,4.9,��
2019/04/22,08:40,0.777,1.137,0.784,1.455,1.061,0.439,0.778,0.735,�k��,4.3,��
2019/04/22,08:50,0.778,1.136,0.783,1.457,1.061,0.440,0.777,0.733,�k�k��,3.6,��
2019/04/22,09:00,0.777,1.134,0.785,1.457,1.061,0.441,0.780,0.737,�k��,3.7,��
2019/04/22,09:10,0.777,1.130,0.786,1.456,1.062,0.440,0.781,0.736,�k��,3.7,��
2019/04/22,09:20,0.776,1.133,0.785,1.457,1.061,0.439,0.780,0.735,�k��,4.4,��
2019/04/22,09:30,0.778,1.132,0.784,1.455,1.060,0.440,0.777,0.734,�k��,4.1,��
2019/04/22,09:40,0.775,1.135,0.784,1.455,1.064,0.441,0.779,0.736,�k��,4.6,��
2019/04/22,09:50,0.777,1.137,0.783,1.454,1.060,0.440,0.779,0.736,���k��,3.3,��
2019/04/22,10:00,0.776,1.137,0.781,1.458,1.061,0.441,0.780,0.737,���k��,3.8,��
2019/04/22,10:10,0.777,1.138,0.782,1.455,1.063,0.441,0.780,0.735,�k��,4.9,��
2019/04/22,10:20,0.779,1.133,0.781,1.456,1.063,0.441,0.781,0.736,�k��,5.1,��
2019/04/22,10:30,0.778,1.136,0.782,1.457,1.063,0.440,0.780,0.734,�k��,6.3,��
2019/04/22,10:40,0.777,1.137,0.784,1.457,1.063,0.442,0.781,0.735,�k�k��,4.2,��
2019/04/22,10:50,0.777,1.140,0.784,1.454,1.064,0.441,0.781,0.735,�k�k��,5.2,��
2019/04/22,11:00,0.779,1.138,0.783,1.455,1.062,0.439,0.782,0.735,�k�k��,5.6,��
2019/04/22,11:10,0.780,1.135,0.783,1.457,1.063,0.439,0.782,0.735,�k�k��,5.9,��
2019/04/22,11:20,0.779,1.138,0.784,1.455,1.063,0.439,0.781,0.735,�k��,4.8,��
2019/04/22,11:30,0.780,1.136,0.783,1.456,1.063,0.442,0.781,0.735,�k�k��,5.4,��
2019/04/22,11:40,0.778,1.137,0.782,1.455,1.066,0.441,0.780,0.736,�k�k��,5.7,��
2019/04/22,11:50,0.778,1.138,0.785,1.458,1.064,0.441,0.780,0.736,�k�k��,5.0,��
2019/04/22,12:00,0.779,1.140,0.783,1.454,1.064,0.440,0.781,0.735,�k�k��,5.5,��
2019/04/22,12:10,0.780,1.140,0.784,1.453,1.067,0.439,0.781,0.737,�k�k��,6.0,��
2019/04/22,12:20,0.779,1.138,0.784,1.454,1.064,0.441,0.783,0.735,�k�k��,6.1,��
2019/04/22,12:30,0.780,1.139,0.785,1.455,1.067,0.441,0.780,0.736,�k�k��,6.3,��
2019/04/22,12:40,0.779,1.140,0.785,1.455,1.066,0.441,0.781,0.738,�k�k��,4.3,��
2019/04/22,12:50,0.779,1.138,0.785,1.456,1.067,0.439,0.782,0.737,�k��,5.5,��
2019/04/22,13:00,0.781,1.138,0.786,1.457,1.064,0.439,0.781,0.736,�k�k��,5.5,��
2019/04/22,13:10,0.780,1.139,0.784,1.457,1.067,0.440,0.781,0.736,�k��,6.2,��
2019/04/22,13:20,0.780,1.138,0.785,1.458,1.066,0.441,0.782,0.737,�k�k��,5.1,��
2019/04/22,13:30,0.781,1.137,0.787,1.459,1.065,0.440,0.782,0.736,�k��,4.0,��
2019/04/22,13:40,0.777,1.134,0.784,1.458,1.067,0.440,0.782,0.736,�k��,4.7,��
2019/04/22,13:50,0.771,1.139,0.785,1.456,1.065,0.440,0.782,0.735,�k��,6.2,��
2019/04/22,14:00,0.774,1.139,0.786,1.458,1.066,0.441,0.783,0.736,�k��,5.7,��
2019/04/22,14:10,0.779,1.133,0.786,1.458,1.064,0.440,0.781,0.736,�k��,4.4,��
2019/04/22,14:20,0.780,1.130,0.787,1.458,1.066,0.441,0.782,0.736,�k��,4.6,��
2019/04/22,14:30,0.782,1.128,0.786,1.459,1.067,0.441,0.783,0.736,�k��,3.4,��
2019/04/22,14:40,0.780,1.136,0.786,1.463,1.066,0.441,0.783,0.736,�k��,3.9,��
2019/04/22,14:50,0.781,1.140,0.785,1.459,1.069,0.440,0.784,0.736,�k��,4.5,��
2019/04/22,15:00,0.780,1.138,0.786,1.457,1.065,0.440,0.783,0.736,�k��,4.1,��
2019/04/22,15:10,0.779,1.141,0.785,1.455,1.066,0.439,0.782,0.736,�k��,3.6,��
2019/04/22,15:20,0.781,1.141,0.785,1.457,1.067,0.439,0.782,0.736,�k��,3.3,��
2019/04/22,15:30,0.781,1.142,0.786,1.455,1.069,0.440,0.781,0.735,�k��,2.3,��
2019/04/22,15:40,0.781,1.140,0.784,1.455,1.066,0.442,0.783,0.737,���k��,2.8,��
2019/04/22,15:50,0.780,1.141,0.788,1.456,1.068,0.441,0.783,0.736,�k��,2.6,��
2019/04/22,16:00,0.780,1.141,0.786,1.454,1.068,0.439,0.782,0.736,�k��,3.0,��
2019/04/22,16:10,0.781,1.141,0.785,1.457,1.067,0.441,0.781,0.735,�k��,2.5,��
2019/04/22,16:20,0.779,1.141,0.786,1.457,1.068,0.442,0.781,0.736,�k��,2.6,��
2019/04/22,16:30,0.780,1.144,0.784,1.457,1.068,0.442,0.783,0.736,�k��,3.5,��
2019/04/22,16:40,0.779,1.144,0.787,1.454,1.067,0.443,0.781,0.736,�k��,3.7,��
2019/04/22,16:50,0.781,1.144,0.785,1.459,1.067,0.443,0.782,0.736,�k��,3.1,��
2019/04/22,17:00,0.779,1.144,0.786,1.455,1.067,0.441,0.782,0.737,�k��,3.5,��
2019/04/22,17:10,0.779,1.146,0.786,1.457,1.067,0.442,0.781,0.737,�k�k��,3.3,��
2019/04/22,17:20,0.779,1.144,0.785,1.453,1.067,0.443,0.780,0.736,�k�k��,3.0,��
2019/04/22,17:30,0.779,1.145,0.786,1.457,1.066,0.444,0.781,0.737,�k�k��,4.5,��
2019/04/22,17:40,0.779,1.145,0.786,1.454,1.066,0.442,0.782,0.736,�k,4.3,��
2019/04/22,17:50,0.780,1.145,0.785,1.455,1.068,0.442,0.782,0.737,�k,3.5,��
2019/04/22,18:00,0.778,1.146,0.785,1.458,1.064,0.443,0.782,0.739,�k�k��,3.0,��
2019/04/22,18:10,0.779,1.145,0.786,1.455,1.067,0.444,0.778,0.738,�k�k��,2.8,��
2019/04/22,18:20,0.780,1.147,0.787,1.458,1.066,0.442,0.780,0.738,�k�k��,2.8,��
2019/04/22,18:30,0.779,1.148,0.785,1.459,1.069,0.442,0.781,0.740,�k�k��,3.5,��
2019/04/22,18:40,0.778,1.144,0.787,1.460,1.068,0.441,0.781,0.738,�k,4.3,��
2019/04/22,18:50,0.782,1.147,0.788,1.458,1.069,0.442,0.782,0.738,�k�k��,5.0,��
2019/04/22,19:00,0.781,1.145,0.786,1.458,1.066,0.441,0.782,0.739,�k�k��,5.9,��
2019/04/22,19:10,0.779,1.145,0.785,1.458,1.066,0.442,0.781,0.737,�k,4.8,��
2019/04/22,19:20,0.782,1.143,0.786,1.458,1.069,0.440,0.781,0.737,�k,5.0,��
2019/04/22,19:30,0.780,1.144,0.786,1.458,1.069,0.441,0.781,0.737,�k�k��,5.4,��
2019/04/22,19:40,0.778,1.144,0.788,1.459,1.068,0.440,0.781,0.738,�k,4.6,��
2019/04/22,19:50,0.781,1.146,0.787,1.460,1.067,0.441,0.782,0.736,�k�k��,5.8,��
2019/04/22,20:00,0.780,1.144,0.787,1.460,1.069,0.440,0.782,0.737,�k�k��,6.0,��
2019/04/22,20:10,0.780,1.146,0.788,1.459,1.064,0.442,0.781,0.737,�k�k��,5.9,��
2019/04/22,20:20,0.780,1.143,0.788,1.460,1.068,0.441,0.782,0.736,�k�k��,6.3,��
2019/04/22,20:30,0.779,1.143,0.786,1.460,1.065,0.440,0.782,0.737,�k�k��,5.2,��
2019/04/22,20:40,0.776,1.144,0.786,1.460,1.065,0.442,0.782,0.737,�k�k��,5.5,��
2019/04/22,20:50,0.777,1.145,0.785,1.460,1.066,0.441,0.782,0.736,�k�k��,5.8,��
2019/04/22,21:00,0.780,1.142,0.787,1.460,1.067,0.441,0.781,0.737,�k�k��,5.8,��
2019/04/22,21:10,0.778,1.142,0.787,1.458,1.067,0.439,0.780,0.737,�k�k��,5.1,��
2019/04/22,21:20,0.778,1.143,0.789,1.458,1.067,0.440,0.780,0.736,�k�k��,5.3,��
2019/04/22,21:30,0.780,1.142,0.785,1.459,1.067,0.439,0.781,0.736,�k�k��,4.7,��
2019/04/22,21:40,0.779,1.143,0.785,1.459,1.067,0.441,0.780,0.736,�k�k��,4.2,��
2019/04/22,21:50,0.778,1.143,0.787,1.462,1.067,0.440,0.781,0.738,�k�k��,5.3,��
2019/04/22,22:00,0.779,1.143,0.786,1.460,1.064,0.440,0.781,0.738,�k�k��,5.2,��
2019/04/22,22:10,0.777,1.142,0.786,1.459,1.068,0.440,0.780,0.738,�k�k��,5.7,��
2019/04/22,22:20,0.781,1.144,0.785,1.459,1.068,0.440,0.780,0.736,�k�k��,3.9,��
2019/04/22,22:30,0.776,1.143,0.788,1.459,1.066,0.439,0.781,0.737,�k�k��,4.3,��
2019/04/22,22:40,0.779,1.141,0.785,1.461,1.066,0.440,0.780,0.735,�k�k��,3.8,��
2019/04/22,22:50,0.780,1.142,0.786,1.459,1.065,0.439,0.781,0.735,�k�k��,4.3,��
2019/04/22,23:00,0.777,1.145,0.787,1.456,1.067,0.439,0.781,0.736,�k�k��,4.1,��
2019/04/22,23:10,0.778,1.141,0.784,1.462,1.066,0.439,0.780,0.735,�k�k��,3.9,��
2019/04/22,23:20,0.778,1.145,0.787,1.459,1.065,0.440,0.779,0.735,�k�k��,3.5,��
2019/04/22,23:30,0.777,1.142,0.787,1.458,1.067,0.439,0.781,0.736,�k�k��,3.0,��
2019/04/22,23:40,0.778,1.142,0.787,1.456,1.065,0.439,0.779,0.735,�k�k��,3.0,��
2019/04/22,23:50,0.777,1.141,0.785,1.456,1.066,0.441,0.781,0.735,�k�k��,3.0,��
